Temp
8 8 8 8 9 9 9 9 9 9 9 9 9 9 9 9 9 9 8 8 8 9 9 9 9 8 9 9 9 9 9 8 9 9 9 9 9 9 10 10 10 10 10
9 9 9 9 9 9 9 9 9 9 9 9 9 9 9 9 8 9 8 8 8 9 9 8 8 9 9 9 9 8 9 8 8 8 9 9 9 9 10 9 10 10 9
9 9 9 9 9 9 9 9 9 9 9 9 9 9 8 8 9 8 8 8 8 8 8 8 9 8 9 8 8 8 8 8 8 8 9 9 9 10 9 9 9 9 9
9 9 9 9 9 9 9 9 9 9 9 9 9 9 8 8 8 8 8 8 8 8 8 8 8 8 8 8 8 8 8 8 8 8 8 9 9 9 9 9 9 9 9
9 9 9 8 9 8 8 8 8 9 9 9 8 8 8 9 8 8 8 8 8 8 9 8 8 8 8 8 8 8 8 8 8 8 8 9 9 9 9 9 9 9 9
9 9 9 9 9 8 8 8 8 8 8 9 8 8 9 9 8 8 8 8 8 9 8 8 8 8 8 8 7 8 8 8 8 9 9 9 9 9 9 9 9 9 9
9 9 9 8 9 8 8 8 8 9 8 8 9 9 8 8 8 8 8 8 9 8 8 8 8 8 8 8 7 7 7 8 8 8 8 8 8 9 9 9 9 8 8
9 9 9 9 9 8 8 8 8 8 8 9 9 8 8 8 8 8 8 8 8 9 8 8 8 8 8 7 7 8 8 8 8 8 8 8 8 8 8 8 8 8 8
8 9 9 9 8 8 8 8 8 8 8 8 8 8 8 8 8 8 8 8 8 9 8 8 8 7 8 8 7 7 8 8 8 8 8 8 8 8 8 8 8 8 8
8 8 9 9 8 8 8 8 8 8 8 8 8 8 8 8 8 8 8 8 8 7 8 8 8 7 8 7 8 7 8 8 8 9 8 8 8 8 8 8 8 8 8
9 9 9 9 9 8 8 8 8 8 8 8 8 8 8 8 8 8 8 8 8 7 7 7 7 7 7 7 7 7 8 8 8 8 8 8 8 8 8 8 8 8 8
9 9 9 9 9 8 8 8 8 8 8 8 8 8 8 8 8 8 7 8 8 7 7 7 7 7 7 7 6 6 7 8 8 8 8 8 8 8 8 8 8 8 8
9 9 9 9 8 8 8 8 8 9 9 8 8 8 8 8 7 8 7 7 8 8 8 7 7 7 6 6 6 6 7 7 8 8 8 8 8 8 8 8 8 8 8
10 10 9 9 8 8 8 8 8 9 8 8 8 8 8 8 7 8 7 8 8 8 8 7 7 6 6 6 6 6 6 7 7 8 8 8 8 8 8 8 8 8 8
10 10 9 9 9 9 8 8 8 9 9 8 8 8 8 8 8 7 7 7 7 7 8 7 6 6 5 5 6 5 6 6 7 8 8 8 8 8 8 8 8 8 8
10 10 9 9 9 9 8 8 8 9 8 9 9 8 8 8 8 8 8 8 8 8 7 7 6 6 5 5 5 6 6 6 7 7 8 8 8 8 8 8 8 8 8
11 10 10 9 9 9 8 8 9 8 8 9 9 9 8 8 8 8 8 8 8 8 7 7 6 6 5 4 6 7 6 6 7 7 8 7 8 8 8 8 8 8 8
11 10 9 9 9 9 9 9 9 9 8 9 9 9 8 8 8 9 8 8 8 7 7 6 6 5 4 5 5 6 6 7 7 7 7 7 8 8 8 8 8 8 8
11 10 10 10 10 9 9 9 9 9 9 9 9 9 9 9 9 8 8 8 8 7 7 6 7 5 5 4 5 5 6 7 6 7 7 7 8 8 8 8 8 8 8
10 10 10 10 10 10 9 9 9 9 9 9 9 10 10 10 9 9 8 8 8 7 7 7 7 6 6 5 5 4 6 6 6 6 7 8 8 8 9 9 9 8 8
10 10 10 10 10 10 10 9 10 9 9 9 9 10 10 10 10 9 8 8 7 8 7 7 7 7 6 6 5 6 6 6 7 7 7 8 8 8 9 9 9 9 9
11 10 10 10 10 10 10 10 10 9 9 9 9 9 10 10 10 10 9 9 8 8 8 8 8 7 7 7 6 6 6 6 7 7 8 8 8 8 9 9 9 9 9
11 11 11 10 10 11 10 10 10 9 9 10 10 10 10 10 10 10 9 9 9 8 8 9 8 8 7 7 7 7 7 7 7 7 7 8 8 8 8 9 9 9 9
12 12 12 12 11 11 10 10 10 10 10 10 10 10 10 10 10 10 10 9 9 9 9 9 9 9 8 7 8 8 7 8 7 8 8 8 8 9 9 9 9 9 9
12 12 12 12 11 11 11 11 10 10 10 10 10 10 10 10 10 10 10 9 9 9 9 9 9 9 9 9 9 8 8 8 8 8 8 7 8 8 9 9 9 9 9
12 12 12 12 12 11 11 11 11 10 10 10 10 10 10 10 10 10 10 10 10 10 9 10 10 10 10 10 10 9 9 8 8 8 8 8 8 8 9 9 9 9 9
Height
3171 3174 3176 3179 3183 3186 3188 3190 3190 3192 3193 3194 3196 3198 3200 3201 3201 3202 3202 3203 3202 3203 3203 3203 3203 3204 3203 3203 3203 3204 3204 3205 3207 3208 3210 3212 3213 3214 3215 3216 3216 3217 3216
3173 3175 3178 3182 3185 3187 3188 3191 3192 3194 3195 3197 3198 3200 3201 3201 3202 3203 3204 3204 3204 3204 3204 3204 3205 3205 3204 3204 3204 3204 3204 3205 3206 3208 3211 3213 3214 3215 3216 3217 3218 3219 3218
3175 3177 3180 3183 3186 3188 3190 3192 3194 3196 3197 3198 3200 3201 3202 3203 3204 3205 3205 3205 3205 3205 3206 3206 3206 3205 3205 3205 3205 3205 3205 3205 3207 3209 3211 3213 3215 3217 3218 3219 3220 3220 3219
3177 3179 3182 3184 3187 3189 3192 3194 3196 3197 3199 3200 3202 3202 3204 3205 3206 3206 3207 3207 3207 3208 3208 3207 3207 3207 3207 3206 3206 3207 3206 3206 3208 3209 3212 3214 3217 3219 3220 3221 3221 3221 3220
3179 3182 3184 3187 3189 3191 3193 3195 3198 3199 3201 3202 3204 3205 3206 3207 3207 3209 3210 3210 3210 3210 3210 3209 3208 3208 3208 3208 3208 3208 3208 3208 3209 3211 3213 3216 3218 3220 3221 3222 3221 3221 3221
3180 3183 3187 3189 3191 3193 3195 3198 3200 3202 3203 3205 3207 3208 3208 3209 3211 3211 3212 3212 3212 3212 3211 3210 3210 3210 3210 3210 3210 3210 3209 3210 3211 3213 3215 3217 3220 3221 3222 3222 3222 3222 3222
3182 3185 3189 3191 3193 3196 3198 3200 3202 3204 3205 3207 3209 3210 3210 3212 3213 3213 3213 3213 3213 3213 3212 3212 3212 3213 3213 3213 3213 3213 3213 3213 3214 3215 3217 3219 3221 3222 3223 3223 3223 3224 3224
3185 3187 3191 3193 3195 3198 3200 3203 3205 3206 3208 3209 3211 3212 3213 3214 3215 3215 3215 3214 3214 3213 3213 3214 3213 3214 3215 3215 3216 3216 3216 3216 3217 3219 3220 3221 3222 3223 3224 3225 3225 3226 3226
3187 3190 3193 3194 3197 3199 3202 3204 3206 3208 3210 3211 3213 3214 3216 3215 3216 3217 3217 3216 3215 3215 3215 3215 3216 3216 3217 3218 3218 3219 3219 3219 3219 3221 3222 3223 3224 3225 3226 3226 3227 3227 3228
3188 3191 3194 3196 3198 3201 3204 3205 3208 3210 3212 3213 3215 3216 3218 3218 3219 3219 3219 3218 3217 3218 3218 3219 3218 3219 3219 3219 3220 3221 3222 3222 3223 3223 3224 3225 3225 3226 3227 3228 3228 3229 3230
3187 3192 3195 3197 3199 3202 3204 3207 3210 3212 3213 3215 3217 3218 3220 3220 3220 3221 3221 3221 3220 3220 3221 3221 3221 3222 3222 3222 3222 3223 3224 3225 3225 3225 3225 3226 3227 3227 3228 3230 3231 3232 3233
3186 3191 3195 3198 3201 3204 3206 3209 3211 3213 3215 3217 3218 3220 3222 3222 3222 3222 3223 3222 3222 3222 3222 3223 3223 3224 3224 3225 3225 3225 3225 3226 3227 3227 3228 3229 3229 3230 3230 3230 3231 3232 3232
3188 3192 3195 3198 3202 3205 3208 3210 3212 3215 3217 3219 3220 3222 3223 3224 3224 3224 3225 3225 3224 3224 3224 3225 3225 3225 3225 3226 3226 3226 3227 3227 3228 3229 3229 3230 3231 3232 3232 3232 3232 3233 3234
3188 3193 3196 3199 3203 3206 3209 3211 3214 3216 3219 3220 3222 3224 3225 3226 3226 3226 3226 3226 3226 3225 3225 3226 3226 3227 3226 3226 3226 3227 3227 3228 3229 3230 3230 3231 3231 3232 3233 3234 3235 3235 3235
3189 3193 3197 3200 3203 3207 3210 3212 3215 3217 3220 3222 3224 3226 3226 3227 3227 3228 3229 3229 3228 3227 3227 3226 3227 3227 3227 3226 3226 3227 3228 3229 3229 3230 3231 3232 3233 3233 3234 3235 3236 3236 3236
3189 3193 3197 3200 3204 3208 3211 3213 3216 3218 3220 3223 3225 3227 3228 3228 3228 3229 3230 3230 3230 3229 3229 3229 3228 3228 3227 3227 3227 3227 3228 3229 3230 3231 3232 3233 3234 3235 3236 3237 3237 3236 3237
3190 3193 3197 3201 3204 3208 3211 3214 3217 3219 3221 3224 3226 3228 3229 3229 3229 3230 3230 3231 3231 3230 3230 3230 3229 3229 3228 3229 3228 3227 3229 3230 3231 3231 3233 3233 3235 3236 3236 3237 3237 3238 3238
3189 3192 3197 3200 3204 3208 3211 3214 3217 3220 3222 3224 3226 3229 3230 3230 3230 3231 3231 3232 3233 3232 3231 3231 3230 3230 3230 3231 3230 3230 3230 3231 3231 3232 3233 3234 3235 3237 3237 3237 3238 3238 3238
3188 3192 3195 3199 3203 3207 3211 3214 3217 3220 3222 3224 3227 3229 3230 3230 3231 3232 3232 3233 3234 3234 3233 3233 3232 3231 3232 3232 3232 3232 3232 3231 3232 3233 3233 3234 3234 3236 3237 3237 3238 3237 3237
3187 3191 3194 3199 3203 3206 3209 3212 3216 3219 3221 3224 3227 3229 3231 3231 3231 3233 3233 3234 3235 3234 3234 3234 3234 3233 3233 3233 3234 3234 3233 3233 3233 3234 3234 3234 3234 3236 3236 3236 3237 3236 3237
3183 3187 3191 3196 3200 3203 3207 3210 3214 3218 3221 3224 3226 3228 3230 3231 3232 3233 3233 3234 3235 3235 3235 3235 3235 3235 3235 3235 3235 3236 3236 3236 3236 3235 3235 3235 3235 3236 3236 3235 3236 3237 3237
3179 3184 3187 3193 3198 3202 3206 3210 3213 3217 3220 3222 3225 3227 3229 3231 3233 3233 3234 3234 3235 3236 3236 3236 3236 3236 3236 3237 3237 3238 3239 3239 3238 3237 3237 3237 3237 3237 3237 3237 3236 3236 3236
3174 3179 3184 3189 3195 3199 3204 3207 3211 3213 3217 3220 3223 3226 3228 3230 3233 3233 3234 3235 3236 3237 3236 3237 3237 3237 3237 3239 3239 3240 3240 3241 3241 3239 3239 3239 3238 3239 3239 3238 3238 3238 3238
3170 3176 3181 3186 3191 3197 3201 3204 3208 3212 3216 3220 3222 3224 3227 3229 3231 3233 3234 3235 3236 3237 3237 3238 3239 3239 3238 3240 3241 3241 3242 3243 3242 3242 3241 3241 3241 3241 3241 3240 3239 3240 3239
3168 3173 3178 3183 3188 3193 3198 3202 3206 3209 3213 3217 3220 3222 3225 3227 3229 3232 3234 3235 3236 3237 3238 3238 3239 3240 3241 3241 3243 3244 3244 3245 3244 3244 3243 3243 3243 3243 3243 3242 3242 3241 3241
3167 3171 3175 3180 3184 3189 3194 3199 3203 3207 3210 3214 3217 3220 3223 3226 3229 3231 3233 3234 3236 3237 3237 3238 3240 3241 3243 3244 3244 3245 3245 3246 3246 3246 3246 3246 3246 3246 3245 3245 3244 3244 3243
Wind_Speed
29 28 27 24 23 22 20 18 18 18 18 17 16 15 14 13 13 12 11 10 10 9 10 9 8 5 3 3 3 3 3 4 7 11 11 8 7 7 6 5 5 5 5
27 28 26 24 21 18 16 16 17 18 18 15 13 12 12 12 11 10 10 9 9 10 10 8 7 6 6 6 6 4 4 6 7 9 12 11 9 7 5 5 4 4 5
26 26 25 22 19 16 14 14 16 17 16 14 13 13 12 12 11 10 10 8 8 7 7 5 6 6 8 8 8 8 8 7 9 11 11 13 10 7 5 4 4 4 6
26 25 23 20 16 14 14 15 16 15 14 13 13 12 13 13 11 10 10 8 6 7 6 5 6 8 10 11 11 10 8 8 9 12 12 13 11 8 6 5 5 5 6
26 24 21 19 15 13 13 15 16 15 13 13 13 12 13 13 11 11 10 8 7 7 6 6 9 10 12 13 12 10 10 11 11 13 14 15 11 8 6 5 4 5 6
26 24 21 17 15 14 15 14 14 14 13 13 13 14 14 13 12 11 9 7 7 7 8 10 13 13 13 13 12 12 13 13 13 15 15 13 11 7 6 4 4 6 7
27 23 20 17 16 17 16 15 14 14 14 13 13 13 13 13 11 8 7 7 6 8 8 10 8 12 12 12 13 14 15 15 16 16 14 13 10 8 7 6 7 7 7
25 22 18 17 18 18 16 15 15 14 14 13 13 12 11 10 9 8 8 7 9 8 9 10 9 9 12 12 13 14 14 15 16 15 14 13 11 10 9 7 7 7 8
25 20 17 18 18 17 16 15 15 14 14 13 12 11 9 9 9 7 9 13 15 14 14 10 9 11 13 13 12 13 13 14 16 16 15 13 11 10 9 8 8 8 7
25 20 17 19 18 16 16 15 15 15 14 12 10 10 8 9 10 8 10 12 12 14 15 12 10 12 13 13 12 11 11 12 13 14 14 13 11 10 10 8 8 7 7
25 21 18 19 17 17 17 16 14 14 13 12 10 10 9 9 10 10 11 11 12 12 13 13 10 10 13 13 14 13 10 10 10 11 12 12 11 11 11 9 8 8 7
25 22 21 20 18 18 18 16 14 14 12 11 10 11 9 10 10 9 8 9 12 10 8 9 9 10 11 10 10 10 10 9 10 9 10 10 9 10 10 9 8 8 7
23 22 23 22 20 18 17 15 13 12 11 11 11 10 10 11 10 9 9 6 8 9 8 8 9 9 5 6 6 5 6 8 8 8 9 9 9 9 9 8 8 7 6
23 22 23 24 21 19 17 15 13 12 12 11 12 10 10 10 8 8 8 8 6 6 6 5 5 6 5 4 5 7 5 5 6 8 9 10 9 8 7 7 8 7 5
23 24 24 24 22 19 18 15 12 11 12 11 12 9 8 8 8 7 7 6 5 4 4 6 5 2 3 3 3 6 7 6 7 9 9 8 7 7 7 6 7 6 5
24 25 25 24 22 20 18 15 12 10 11 13 11 7 8 7 8 7 6 8 6 5 6 6 7 5 2 3 2 5 9 8 8 9 9 6 6 5 5 6 5 5 5
23 27 26 24 23 21 18 15 13 11 10 12 10 10 6 8 9 6 5 5 8 5 4 8 8 10 9 6 5 9 12 10 8 10 9 6 5 4 5 5 4 4 3
25 28 28 26 23 22 20 16 13 11 11 10 10 10 8 6 7 6 5 8 6 3 3 5 3 9 10 8 8 14 12 10 9 10 8 6 5 5 4 4 4 3 2
24 27 29 28 25 21 21 18 14 11 12 11 11 11 9 7 6 5 5 6 5 3 2 3 3 4 7 6 8 11 9 12 11 9 6 5 6 6 5 4 4 3 3
27 27 29 29 27 24 23 21 17 14 13 13 13 11 10 8 6 5 4 4 4 4 2 1 4 4 5 7 10 10 10 13 12 10 7 5 4 4 5 6 6 6 5
29 30 30 31 30 28 25 22 19 15 13 15 15 12 9 7 6 6 5 4 3 4 3 2 4 6 7 8 10 11 11 10 9 9 8 8 8 6 5 3 6 5 6
31 31 33 32 31 28 26 22 19 16 15 15 17 13 9 7 7 6 5 4 3 2 4 4 5 6 8 10 10 8 9 7 7 7 7 5 6 7 6 5 5 5 3
33 33 33 33 33 30 27 25 22 21 21 20 17 12 9 7 7 6 5 4 4 2 3 4 6 6 8 8 12 11 10 9 7 7 8 5 3 5 6 6 6 7 6
30 31 31 31 33 30 29 27 25 22 20 18 16 14 11 9 9 9 7 6 5 5 5 5 6 8 12 10 9 11 11 10 10 9 8 8 6 6 7 8 8 6 5
28 30 30 32 33 31 29 28 26 24 21 18 16 15 14 12 11 11 11 10 8 7 6 6 8 10 12 12 11 9 9 10 10 10 10 9 8 7 8 8 9 8 7
27 31 31 31 32 33 31 30 29 26 21 19 17 16 14 13 12 11 11 12 11 8 8 8 9 10 11 11 10 9 8 8 9 9 10 11 10 9 10 10 11 9 9
Wind_Direction
154 145 139 137 132 127 124 119 115 115 115 114 118 119 115 111 105 101 100 94 93 102 105 102 89 69 66 85 102 110 149 175 168 180 179 163 158 145 122 102 78 63 59
154 146 142 141 133 123 119 117 117 119 116 112 110 113 112 109 113 111 103 98 92 99 107 101 82 73 89 98 84 90 117 158 168 169 184 181 163 143 119 102 81 72 72
158 149 144 138 129 124 123 122 121 120 114 112 115 113 113 109 108 118 115 109 102 100 93 82 66 74 89 94 89 95 88 109 142 158 165 170 156 146 131 111 84 78 61
157 149 144 135 132 130 133 126 124 120 114 114 112 110 111 115 115 118 113 103 99 96 87 65 70 86 93 92 88 80 71 107 123 142 150 157 152 138 127 117 95 60 51
155 148 143 140 137 138 135 129 131 127 124 121 118 117 116 116 119 116 113 113 93 77 68 63 77 90 89 95 86 77 76 101 116 136 140 152 149 138 127 106 68 57 67
155 151 147 145 144 146 139 135 135 134 130 126 122 118 118 119 119 117 112 102 90 82 83 85 89 87 97 97 85 87 86 90 111 128 132 143 140 130 117 97 78 91 93
158 154 152 149 151 146 143 144 143 139 136 130 126 122 119 118 113 109 103 93 80 84 98 104 96 97 101 93 98 91 85 91 105 116 124 132 130 128 115 108 106 102 107
162 158 158 151 150 147 147 146 143 142 138 136 134 131 125 117 114 110 100 78 69 85 104 104 110 109 111 104 101 101 101 104 103 111 117 121 121 114 111 109 106 104 106
165 164 160 153 152 149 148 146 140 139 140 137 134 130 123 120 114 108 91 81 85 88 91 102 104 112 112 114 117 113 113 112 112 115 117 117 116 116 115 112 109 109 106
168 167 160 157 155 153 150 145 143 142 139 137 139 126 118 114 102 91 92 84 82 90 79 82 106 121 117 112 121 120 121 114 116 118 119 118 114 114 116 114 111 110 102
170 168 162 161 157 153 153 146 148 143 142 144 139 125 126 107 98 90 94 83 74 92 75 81 99 122 123 120 117 115 115 117 117 119 121 121 120 116 113 108 97 84 81
170 167 166 161 157 154 152 148 150 146 147 141 136 133 127 114 103 101 98 90 73 88 86 76 85 129 139 130 117 111 110 115 116 114 111 113 107 108 111 109 104 98 96
169 171 166 160 159 158 153 156 157 151 145 138 136 134 128 123 106 97 84 78 82 86 75 93 89 110 133 157 149 144 132 125 121 110 117 120 108 104 101 107 106 105 99
173 171 170 162 163 163 158 160 162 158 152 143 148 136 127 118 116 86 68 94 73 63 59 88 101 97 125 135 167 173 196 151 132 127 126 117 108 107 102 100 100 106 109
177 173 174 167 166 165 165 165 169 170 164 153 148 137 148 125 119 101 88 80 73 57 50 51 78 83 121 130 129 160 187 130 148 147 143 131 111 114 111 111 106 101 100
181 177 177 173 172 170 170 172 174 169 151 155 161 150 151 138 118 88 80 71 82 108 92 74 87 87 112 129 68 159 152 151 151 157 156 144 125 118 117 103 115 112 101
184 183 180 181 178 178 177 181 181 175 156 167 157 151 152 140 120 100 63 54 53 85 77 55 67 71 94 73 75 140 148 148 144 157 160 159 154 151 135 128 127 115 105
192 188 185 188 185 184 184 187 192 188 176 177 180 167 169 150 126 105 88 52 63 85 68 48 79 65 106 116 90 121 129 132 130 138 145 166 181 187 170 151 147 152 164
197 195 191 193 190 190 190 190 198 201 199 193 192 183 180 157 133 124 91 76 55 57 95 67 84 64 91 139 122 106 106 119 118 129 142 160 196 196 198 195 198 204 238
202 200 199 199 197 194 198 197 201 203 209 203 204 192 187 172 158 163 136 85 59 49 81 86 92 106 126 123 138 115 112 118 118 115 116 117 143 163 190 214 215 215 231
203 205 204 203 202 201 204 204 201 201 206 204 213 200 202 187 177 169 133 105 48 62 77 135 118 116 120 126 134 121 118 118 113 106 103 101 97 95 96 177 214 231 252
203 205 206 205 207 206 206 207 203 199 195 194 211 203 201 189 188 170 149 121 83 96 81 109 131 140 104 102 121 114 115 116 111 112 98 86 93 101 90 96 76 84 71
206 204 207 206 207 208 206 205 200 202 200 195 195 196 195 188 180 176 162 154 140 113 90 93 108 127 122 117 117 106 104 99 96 91 89 100 102 98 87 75 66 64 69
203 203 205 202 206 206 206 205 207 206 207 204 193 195 202 201 184 183 184 196 170 152 126 116 112 120 120 122 113 102 95 87 84 78 78 79 76 78 75 74 66 60 69
197 202 199 198 202 205 209 208 209 209 209 207 205 207 210 213 200 196 194 197 193 178 155 150 142 128 117 114 111 108 100 91 86 82 81 81 81 68 62 63 67 61 60
200 200 202 202 203 205 207 210 211 208 206 210 210 214 217 219 212 206 205 197 194 185 181 176 157 143 126 116 112 104 98 97 99 97 84 77 70 65 58 51 49 46 49